Погода в Боговарово

Россия / Костромская область     58°58′34″N   47°01′15″E
темп.,
°C
ветер,
м/с
пор.,
м/с
влажн.,
%
обл.,
%
осадки,
мм/ч
давл.,
гПа
погр.,
м
8 декабря, ср
ср800:00−9юв61793100 2.2 1026755
03:00−8юв61493100 4.1 1024738
06:00−8юв51294100 1.6 1021618
09:00−7юв41195100 3.1 1020492
12:00−6юв3895100 1.2 1020355
15:00−5юв2696100 1.8 1019222
18:00−5юв1298100 0.2 102051
21:00−6зюз119999 0.3 102134
9 декабря, чт
чт900:00−7зсз1398100 0.2 102279
03:00−8сз2397100 0.6 1023127
06:00−8ссз2496100 1.3 1023131
09:00−9ссз2596100 2.6 1023194
12:00−8ссз2596100 1.9 1024233
15:00−9ссз2595100 3.1 1024275
18:00−16ссз269855 0.0 102688
21:00−19сз269912 0.0 102789
10 декабря, пт
пт1000:00−21сз2510027 0.0 102982
03:00−22сз121008 0.0 103018
06:00−23сз1210021 0.0 103215
09:00−24зсз2210013 0.0 103439
12:00−15ссз26955 0.0 1034139
15:00−18сз119953 0.0 10369
18:00−20с1110028 0.0 103810
21:00−22с1110037 0.0 10399
11 декабря, сб
сб1100:00−22ссв1110059 0.0 10409
03:00−22ссз1110060 0.0 10419
06:00−22ссз1110058 0.0 10429
09:00−22зсз1110058 0.0 10439
12:00−13з11935 0.0 104250
15:00−17з11985 0.0 10439
18:00−20зсз111005 0.0 10449
21:00−21зюз111005 0.0 10449
12 декабря, вс
вс1200:00−21юз11995 0.0 10459
03:00−22ююз11995 0.0 10459
06:00−22ююз11995 0.0 104520
09:00−20ююз249981 0.0 104458
12:00−12ю21189100 0.0 1043238
15:00−11ю3118995 0.0 1042224
18:00−11ююз3128974 0.0 1041285
21:00−10ююз3109084 0.0 1040253